FW8680 Weather Reports


time (UTC)temp
C
wind
direction
speed
KPH
gust
KPH
rain 1hr
cm
rain 24hr
cm
rain mn
cm
humidity
%
barometer
mb
20260510213101 15 284 4.8 14.5 0.00 0.20 0.20 46 1027.7
20260510211621 14 74 3.2 19.3 0.00 0.20 0.20 49 1028.0
20260510210044 13 17 9.7 22.5 0.00 0.20 0.20 51 1028.0
20260510204548 13 334 8.0 16.1 0.00 0.20 0.20 50 1028.2
20260510203048 12 33 4.8 16.1 0.00 0.20 0.20 53 1028.3
20260510201554 12 327 3.2 16.1 0.00 0.20 0.20 56 1028.3
20260510200055 12 313 9.7 16.1 0.00 0.20 0.20 59 1028.5
20260510194553 11 53 4.8 12.9 0.00 0.20 0.20 66 1028.5
20260510193044 11 340 1.6 12.9 0.00 0.20 0.20 67 1028.4
20260510191612 10 67 4.8 12.9 0.00 0.20 0.20 73 1028.3
20260510190100 9 342 3.2 8.0 0.00 0.20 0.20 74 1028.6
20260510184543 9 93 1.6 8.0 0.00 0.20 0.20 74 1028.7
20260510183053 8 304 1.6 6.4 0.00 0.20 0.20 79 1028.8
20260510181549 7 294 0.0 8.0 0.00 0.20 0.20 81 1028.9
20260510180056 7 148 0.0 3.2 0.00 0.20 0.20 82 1029.1
20260510174553 6 134 0.0 4.8 0.00 0.20 0.20 85 1029.1
20260510173052 6 336 0.0 6.4 0.00 0.20 0.20 88 1029.1
20260510171548 6 344 1.6 6.4 0.00 0.20 0.20 89 1028.9
20260510170104 6 297 3.2 8.0 0.00 0.20 0.20 92 1029.0
20260510164550 5 246 1.6 9.7 0.00 0.20 0.20 93 1028.9
20260510163046 5 293 3.2 9.7 0.00 0.20 0.20 93 1028.9
20260510161546 5 233 1.6 6.4 0.00 0.20 0.20 92 1028.7
20260510160101 5 317 1.6 9.7 0.00 0.20 0.20 92 1028.5
20260510154556 6 326 1.6 6.4 0.00 0.20 0.20 93 1028.3
20260510153048 5 328 3.2 8.0 0.00 0.20 0.20 95 1028.1
20260510151550 5 21 4.8 11.3 0.00 0.20 0.20 95 1028.1
20260510150052 5 316 1.6 4.8 0.00 0.20 0.20 95 1028.1
20260510144558 4 278 3.2 8.0 0.00 0.20 0.20 96 1028.1
20260510143048 4 313 3.2 6.4 0.00 0.20 0.20 96 1028.1
20260510141545 4 0 0.0 3.2 0.00 0.20 0.20 97 1028.1
20260510140045 3 83 0.0 1.6 0.00 0.20 0.20 97 1027.9
20260510134553 3 331 1.6 4.8 0.00 0.20 0.20 97 1027.9
20260510133050 3 326 1.6 4.8 0.00 0.20 0.20 97 1027.7
20260510131549 3 344 1.6 3.2 0.00 0.20 0.20 97 1027.7
20260510130054 3 326 0.0 1.6 0.03 0.20 0.20 97 1027.7
20260510124610 3 0 0.0 1.6 0.03 0.20 0.20 97 1027.5
20260510123045 3 151 0.0 1.6 0.03 0.20 0.20 97 1027.4
20260510121551 3 0 0.0 0.0 0.03 0.20 0.20 97 1027.2
20260510120051 3 0 0.0 1.6 0.03 0.18 0.18 97 1027.0
20260510114548 2 0 0.0 0.0 0.05 0.18 0.18 97 1027.1
20260510113045 2 319 1.6 3.2 0.05 0.18 0.18 97 1027.0
20260510111548 3 0 0.0 3.2 0.10 0.18 0.18 97 1027.2
20260510110051 3 292 1.6 4.8 0.08 0.15 0.15 97 1027.2
20260510104601 3 315 0.0 3.2 0.08 0.13 0.13 96 1027.0
20260510103048 3 0 1.6 4.8 0.05 0.10 0.10 96 1026.8
20260510101549 3 0 0.0 6.4 0.05 0.08 0.08 96 1026.8
20260510100048 3 279 0.0 3.2 0.08 0.08 0.08 96 1026.4
20260510094601 3 0 1.6 4.8 0.05 0.05 0.05 96 1026.4
20260510093112 3 0 0.0 3.2 0.05 0.05 0.05 95 1026.4
20260510091549 3 259 1.6 9.7 0.03 0.03 0.03 95 1026.5
20260510090049 3 271 1.6 6.4 0.00 0.00 0.00 94 1026.4
20260510084539 3 271 3.2 9.7 0.00 0.00 0.00 93 1026.4
20260510083046 3 291 3.2 8.0 0.00 0.00 0.00 92 1026.5
20260510081546 4 334 3.2 8.0 0.00 0.00 0.00 90 1026.7
20260510080045 4 273 4.8 12.9 0.00 0.00 0.00 88 1026.7
20260510074543 4 271 3.2 11.3 0.00 0.00 0.00 87 1026.7
20260510073050 5 277 3.2 12.9 0.00 0.00 0.00 85 1027.0
20260510071553 5 229 6.4 14.5 0.00 0.00 0.00 83 1027.0
20260510070050 5 271 6.4 16.1 0.00 0.00 0.00 81 1027.1
20260510064543 6 286 1.6 14.5 0.00 0.00 0.00 78 1027.1
20260510063045 6 302 3.2 22.5 0.00 0.00 0.00 77 1027.0
20260510061546 6 323 4.8 22.5 0.00 0.00 0.00 75 1026.8
20260510060048 7 288 8.0 20.9 0.00 0.00 0.00 71 1026.4
20260510054545 10 50 12.9 35.4 0.00 0.00 0.00 56 1024.8
20260510053058 11 86 4.8 16.1 0.00 0.00 0.00 36 1022.6
20260510051549 11 200 4.8 12.9 0.00 0.00 0.00 35 1022.2
20260510050045 12 272 3.2 9.7 0.00 0.00 0.00 35 1022.1
20260510044543 12 246 4.8 14.5 0.00 0.00 0.00 33 1021.9
20260510043050 12 205 11.3 19.3 0.00 0.00 0.00 36 1022.1
20260510041547 12 198 14.5 27.4 0.00 0.00 0.00 35 1022.4
20260510040049 12 190 20.9 29.0 0.00 0.00 0.00 35 1022.5
20260510034545 12 178 3.2 9.7 0.00 0.00 0.00 35 1022.5
20260510033050 13 0 3.2 14.5 0.00 0.00 0.00 33 1022.4
20260510031548 12 281 0.0 9.7 0.00 0.00 0.00 33 1022.2
20260510030049 13 148 1.6 17.7 0.00 0.00 0.00 33 1022.0
20260510024550 13 320 1.6 4.8 0.00 0.00 0.00 31 1021.9
20260510023045 13 275 3.2 6.4 0.00 0.00 0.00 32 1021.7
20260510021552 13 0 0.0 3.2 0.00 0.00 0.00 31 1021.5
20260510020054 13 299 0.0 11.3 0.00 0.00 0.00 30 1021.2
20260510014549 14 348 3.2 8.0 0.00 0.00 0.00 29 1020.9
20260510013057 15 68 6.4 19.3 0.00 0.00 0.00 28 1020.7
20260510011553 15 327 17.7 25.7 0.00 0.00 0.00 26 1020.4
20260510010051 17 333 8.0 16.1 0.00 0.00 0.00 22 1019.3
20260510004559 18 275 12.9 24.1 0.00 0.00 0.00 21 1018.7
20260510003046 18 13 4.8 25.7 0.00 0.00 0.00 14 1018.3
20260510001550 18 254 16.1 30.6 0.00 0.00 0.00 14 1018.0
20260510000057 19 205 17.7 33.8 0.00 0.00 0.00 13 1018.1
20260509234546 20 293 12.9 25.7 0.00 0.00 0.00 12 1017.8
20260509233047 19 268 8.0 27.4 0.00 0.00 0.00 14 1017.8
20260509231545 18 230 17.7 30.6 0.00 0.00 0.00 15 1017.7
20260509230044 18 233 16.1 27.4 0.00 0.00 0.00 15 1017.7
20260509224544 18 251 14.5 29.0 0.00 0.00 0.00 14 1017.7
20260509223049 18 244 14.5 37.0 0.00 0.00 0.00 14 1017.6
20260509221548 19 233 16.1 29.0 0.00 0.00 0.00 14 1017.8
20260509220048 19 273 12.9 25.7 0.00 0.00 0.00 13 1017.9
20260509214600 19 254 20.9 38.6 0.00 0.00 0.00 13 1018.0